[[{"header":{"parameterUnit":"m.s-1","parameterCategory":1,"la1":30.2991,"la2":30.254,"lo1":-89.0895,"lo2":-89.0444,"dy":0.0017,"dx":0.0017,"nx":28,"ny":28,"refTime":"2024-08-31T03:00:00:Z","depth":0,"parameterNumber":2,"parameterNumberName":"U-component_of_WINDS"},"data":[0,0,0,0,0,0,0,0,0,0,0,0,0,0,0,0,0,0,0,0,0,0,0,0,0,0,0,0,0,0,0,0,0,0,0,0,0,0,0,0,0,0,0,0,0,0,0,0,0,0,0,0,0,0,0,0,0,0,-3.339,-3.3389,0,-3.332,-3.3319,-3.3318,-3.3217,-3.3215,-3.3214,-3.3212,-3.3142,-3.3141,-3.3141,0,0,0,0,0,0,0,0,0,0,0,0,0,-3.3439,-3.3439,-3.339,-3.3389,-3.3388,-3.332,-3.3319,-3.3318,-3.3217,-3.3215,-3.3213,-3.3211,-3.3142,-3.3141,-3.3141,0,0,0,0,0,0,0,0,0,0,0,0,0,-3.3399,-3.3439,-3.339,-3.333,-3.3324,-3.332,-3.3319,-3.3318,-3.3218,-3.3215,-3.3213,-3.321,-3.3142,-3.3141,-3.3141,-3.3191,0,0,-3.314,-3.314,0,0,0,0,0,0,0,0,-3.3401,-3.3397,-3.334,-3.3334,-3.3327,-3.3275,-3.331,-3.3276,-3.3219,-3.3258,-3.3212,-3.3209,-3.3188,-3.3184,-3.3176,-3.3188,-3.3185,-3.314,-3.314,-3.314,-3.3139,0,0,0,0,0,0,0,-3.3404,-3.3399,-3.3362,-3.3339,-3.3331,-3.3307,-3.3298,-3.3303,-3.3239,-3.3254,-3.3247,-3.324,-3.3184,-3.3177,-3.3174,-3.3184,-3.314,-3.314,-3.3139,-3.3139,-3.3235,-3.3238,0,0,0,0,0,0,-3.3416,-3.3402,-3.3365,-3.336,-3.3358,-3.3308,-3.3299,-3.3294,-3.3238,-3.3227,-3.3242,-3.3236,-3.3179,-3.3175,-3.3171,-3.3227,-3.314,-3.3139,-3.3139,-3.3232,-3.3236,-3.3239,0,0,0,0,0,0,-3.3417,-3.3413,-3.3367,-3.3379,-3.3372,-3.331,-3.3306,-3.3294,-3.3287,-3.3229,-3.3217,-3.3247,-3.3177,-3.3172,-3.3187,-3.3223,-3.3139,-3.3139,-3.3229,-3.3233,-3.3237,-3.3338,0,0,0,0,0,0,-3.3419,-3.3414,-3.3432,-3.338,-3.3371,-3.3384,-3.3308,-3.3295,-3.3286,-3.3277,-3.323,-3.322,-3.3174,-3.3188,-3.3187,-3.3221,-3.3138,-3.3226,-3.3231,-3.3236,-3.3331,-3.3345,-3.3357,0,0,0,0,0,-3.3421,-3.3463,-3.3433,-3.3429,-3.3392,-3.3386,-3.3381,-3.3327,-3.329,-3.3307,-3.3271,-3.3221,-3.322,-3.3191,-3.3188,-3.3223,-3.3223,-3.323,-3.3236,-3.3326,-3.3343,-3.3357,0,0,0,0,0,0,-3.352,-3.3455,-3.3421,-3.3448,-3.3424,-3.3369,-3.339,-3.3347,-3.3333,-3.3324,-3.3259,-3.3249,-3.3274,-3.325,-3.3219,-3.3269,-3.3214,-3.322,-3.3283,-3.3299,-3.3312,-3.3316,-3.3138,0,0,0,0,0,-3.3546,-3.3546,-3.3489,-3.3518,-3.3508,-3.3452,-3.3447,-3.3408,-3.338,-3.3369,-3.3333,-3.3309,-3.3302,-3.33,-3.3291,-3.3328,-3.3317,-3.3351,-3.3364,-3.3375,-3.338,-3.3399,-3.3414,-3.3259,-3.3259,-3.3259,0,0,-3.3597,-3.3562,-3.3566,-3.3538,-3.3514,-3.3516,-3.3443,-3.3448,-3.345,-3.337,-3.3382,-3.3356,-3.3324,-3.3351,-3.3361,-3.3332,-3.3421,-3.3383,-3.3392,-3.3391,-3.3407,-3.3422,-3.3435,-3.3263,-3.3263,-3.3262,0,0,-3.3693,-3.3666,-3.3687,-3.3665,-3.3631,-3.3593,-3.3599,-3.3551,-3.3531,-3.3542,-3.3482,-3.3484,-3.3474,-3.3454,-3.3443,-3.3534,-3.3488,-3.3533,-3.36,-3.3619,-3.3631,-3.3642,-3.3674,-3.3687,-3.3539,-3.3539,-3.354,0,-3.3761,-3.3761,-3.3704,-3.3713,-3.3703,-3.3631,-3.3653,-3.3635,-3.36,-3.3594,-3.3562,-3.355,-3.3524,-3.3545,-3.3568,-3.3561,-3.3566,-3.3537,-3.3634,-3.3644,-3.3653,-3.3683,-3.3695,-3.3545,-3.3544,-3.3544,-3.3543,0,-3.3848,-3.3849,-3.3871,-3.3839,-3.3831,-3.3847,-3.3793,-3.3792,-3.3755,-3.3721,-3.3735,-3.3701,-3.3684,-3.3687,-3.365,-3.3704,-3.3687,-3.3646,-3.3589,-3.3674,-3.3701,-3.3713,-3.3553,-3.3551,-3.3549,-3.3548,0,0,-3.4001,-3.3938,-3.3947,-3.3932,-3.389,-3.389,-3.3904,-3.3887,-3.3888,-3.3867,-3.3877,-3.3872,-3.3834,-3.3821,-3.3782,-3.3799,-3.3874,-3.3755,-3.3754,-3.3778,-3.3932,-3.3962,-3.3977,-3.3844,-3.3846,-3.3847,-3.3934,0,-3.4088,-3.4105,-3.4055,-3.4086,-3.4088,-3.4021,-3.4033,-3.4009,-3.3979,-3.3976,-3.3943,-3.394,-3.389,-3.3882,-3.3896,-3.3862,-3.3903,-3.3855,-3.3853,-3.3853,-3.3862,-3.3991,-3.4023,-3.4106,-3.3944,-3.3946,-3.3947,0,-3.419,-3.4174,-3.4205,-3.4162,-3.4161,-3.4172,-3.4154,-3.4152,-3.4125,-3.4102,-3.4089,-3.4044,-3.4055,-3.4002,-3.4017,-3.3985,-3.3982,-3.3965,-3.3967,-3.3964,-3.3905,-3.399,-3.4131,-3.4144,-3.3964,-3.3962,-3.3961,0,-3.4298,-3.4285,-3.4302,-3.4292,-3.4242,-3.4252,-3.4232,-3.4201,-3.4195,-3.418,-3.4175,-3.4162,-3.4155,-3.4146,-3.4099,-3.4065,-3.412,-3.4063,-3.4102,-3.4103,-3.4115,-3.4115,-3.4257,-3.4115,-3.4115,-3.4115,-3.4114,0,-3.4399,-3.4421,-3.435,-3.4361,-3.4384,-3.4327,-3.4352,-3.4325,-3.4299,-3.4304,-3.4246,-3.4252,-3.419,-3.419,-3.4154,-3.4172,-3.4169,-3.4151,-3.4141,-3.4156,-3.4158,-3.4152,-3.4144,-3.4118,-3.4117,-3.4117,-3.4116,0,-3.4523,-3.4477,-3.4491,-3.4444,-3.4433,-3.4452,-3.4411,-3.442,-3.4387,-3.4394,-3.4392,-3.4341,-3.4338,-3.4291,-3.4277,-3.4253,-3.4286,-3.4265,-3.4295,-3.4288,-3.433,-3.4326,-3.4471,-3.4488,-3.4337,-3.4339,-3.434,0,-3.459,-3.4605,-3.456,-3.4559,-3.4541,-3.4541,-3.4534,-3.448,-3.4476,-3.4447,-3.4459,-3.4451,-3.4442,-3.4441,-3.4402,-3.4393,-3.4371,-3.4423,-3.4369,-3.4384,-3.4371,-3.437,-3.4372,-3.4434,-3.4436,-3.4437,-3.4438,0,-3.4713,-3.469,-3.4683,-3.4669,-3.4663,-3.4649,-3.4632,-3.4635,-3.4575,-3.4574,-3.457,-3.4563,-3.455,-3.4543,-3.4527,-3.4507,-3.4463,-3.4456,-3.4464,-3.4479,-3.4495,-3.4487,-3.4325,-3.4452,-3.4451,-3.445,-3.4449,-3.4449,-3.481,-3.4821,-3.4791,-3.4785,-3.4767,-3.4752,-3.4758,-3.4727,-3.4722,-3.4707,-3.4676,-3.4677,-3.465,-3.4624,-3.4608,-3.4609,-3.4583,-3.4595,-3.4598,-3.4602,-3.461,-3.4497,-3.4606,-3.4606,-3.4605,-3.4605,-3.4604,0,-3.493,-3.4908,-3.4904,-3.4881,-3.4878,-3.4837,-3.4816,-3.4816,-3.4818,-3.4797,-3.4789,-3.4786,-3.4779,-3.4742,-3.4732,-3.474,-3.472,-3.4739,-3.4737,-3.4734,-3.4634,-3.4627,-3.4755,-3.4755,-3.4755,-3.4755,-3.4755,-3.4755,-3.4992,-3.5008,-3.4982,-3.4989,-3.4967,-3.4967,-3.4959,-3.4946,-3.4929,-3.4927,-3.4922,-3.4897,-3.487,-3.4858,-3.4851,-3.484,-3.4839,-3.4865,-3.4848,-3.4755,-3.474,-3.4727,-3.472,-3.4865,-3.4866,-3.4947,-3.4948,-3.4948]},{"header":{"parameterUnit":"m.s-1","parameterCategory":1,"la1":30.2991,"la2":30.254,"lo1":-89.0895,"lo2":-89.0444,"dy":0.0017,"dx":0.0017,"nx":28,"ny":28,"refTime":"2024-08-31T03:00:00:Z","depth":0,"parameterNumber":3,"parameterNumberName":"V-component_of_WINDS"},"data":[0,0,0,0,0,0,0,0,0,0,0,0,0,0,0,0,0,0,0,0,0,0,0,0,0,0,0,0,0,0,0,0,0,0,0,0,0,0,0,0,0,0,0,0,0,0,0,0,0,0,0,0,0,0,0,0,0,0,0.9598,0.9598,0,0.9651,0.9652,0.9652,0.9694,0.9695,0.9695,0.9695,0.9752,0.9754,0.9755,0,0,0,0,0,0,0,0,0,0,0,0,0,0.9534,0.9535,0.9598,0.9598,0.9599,0.9651,0.9652,0.9653,0.9694,0.9695,0.9695,0.9696,0.9752,0.9753,0.9755,0,0,0,0,0,0,0,0,0,0,0,0,0,0.9572,0.9535,0.9598,0.9626,0.9629,0.9651,0.9652,0.9653,0.9694,0.9695,0.9695,0.9696,0.9752,0.9753,0.9755,0.9754,0,0,0.976,0.9761,0,0,0,0,0,0,0,0,0.957,0.9574,0.9621,0.9624,0.9628,0.9667,0.965,0.9687,0.9694,0.9669,0.9695,0.9696,0.9724,0.9728,0.9736,0.9756,0.9759,0.976,0.9761,0.9762,0.9763,0,0,0,0,0,0,0,0.9567,0.9572,0.9619,0.9622,0.9626,0.9637,0.9643,0.9657,0.9693,0.9672,0.9675,0.968,0.9725,0.9735,0.9738,0.976,0.976,0.9762,0.9763,0.9764,0.9782,0.9781,0,0,0,0,0,0,0.956,0.957,0.9617,0.9621,0.96,0.9638,0.9644,0.9654,0.9693,0.9699,0.968,0.9682,0.9731,0.9736,0.974,0.9741,0.9762,0.9764,0.9765,0.9782,0.9781,0.9781,0,0,0,0,0,0,0.9558,0.9564,0.9615,0.9596,0.9604,0.9638,0.9648,0.9654,0.9663,0.9699,0.9705,0.9683,0.9732,0.9738,0.975,0.9744,0.9765,0.9766,0.9783,0.9782,0.9781,0.9743,0,0,0,0,0,0,0.9556,0.9563,0.9562,0.9596,0.9604,0.9623,0.9648,0.9655,0.9666,0.967,0.9703,0.9709,0.9733,0.9747,0.9752,0.9747,0.9767,0.9783,0.9782,0.9781,0.9745,0.9741,0.9738,0,0,0,0,0,0.9554,0.955,0.9562,0.9567,0.9604,0.9623,0.9628,0.9654,0.9665,0.9665,0.9688,0.9708,0.9744,0.9748,0.9753,0.9749,0.9784,0.9783,0.9781,0.9747,0.9742,0.9738,0,0,0,0,0,0,0.9515,0.9555,0.9569,0.9575,0.9595,0.963,0.963,0.9648,0.9666,0.9669,0.9702,0.9709,0.9718,0.9735,0.9739,0.975,0.9767,0.9766,0.9738,0.9734,0.973,0.9726,0.9769,0,0,0,0,0,0.9507,0.9518,0.9553,0.9555,0.9564,0.9595,0.9604,0.9623,0.9646,0.9655,0.9678,0.97,0.9716,0.9726,0.9743,0.9748,0.9756,0.9748,0.9744,0.9741,0.974,0.9745,0.9741,0.9777,0.9777,0.9777,0,0,0.9491,0.9514,0.9519,0.9548,0.9566,0.9577,0.9602,0.9613,0.9622,0.9657,0.9669,0.9687,0.9714,0.9722,0.9727,0.9737,0.9732,0.9739,0.9736,0.9738,0.9743,0.974,0.9737,0.9776,0.9776,0.9776,0,0,0.9468,0.9486,0.949,0.9507,0.9534,0.9555,0.9555,0.9587,0.96,0.9613,0.964,0.9651,0.9678,0.9696,0.9709,0.9692,0.9712,0.9697,0.9678,0.9682,0.9679,0.9677,0.9671,0.9668,0.9696,0.9696,0.9696,0,0.9445,0.9462,0.949,0.95,0.9512,0.9543,0.9547,0.9563,0.9594,0.9602,0.9611,0.9646,0.9666,0.9679,0.9675,0.9684,0.9687,0.9693,0.9677,0.9675,0.9673,0.9668,0.9666,0.9694,0.9694,0.9695,0.9695,0,0.9433,0.9445,0.9445,0.9473,0.9485,0.9492,0.9522,0.9531,0.9549,0.9569,0.9582,0.9607,0.963,0.9634,0.9652,0.965,0.9655,0.967,0.9688,0.9667,0.9663,0.9662,0.9691,0.9692,0.9693,0.9693,0,0,0.9387,0.943,0.943,0.9443,0.9474,0.9484,0.9493,0.9514,0.9522,0.9542,0.9551,0.9573,0.9587,0.9601,0.9622,0.9625,0.9611,0.964,0.9641,0.9634,0.9611,0.9599,0.9596,0.9624,0.9623,0.9623,0.9608,0,0.9369,0.9385,0.941,0.9419,0.943,0.946,0.9468,0.9488,0.9507,0.952,0.9542,0.9557,0.9575,0.9584,0.9588,0.9611,0.9606,0.9613,0.9633,0.9633,0.9625,0.9594,0.9582,0.9567,0.9607,0.9607,0.9607,0,0.9349,0.9367,0.9376,0.9407,0.9413,0.9419,0.9441,0.9453,0.9477,0.9491,0.9506,0.9528,0.954,0.9556,0.9573,0.9576,0.9586,0.9599,0.9599,0.9602,0.9618,0.9596,0.9562,0.956,0.9604,0.9604,0.9605,0,0.9315,0.9341,0.935,0.936,0.9396,0.94,0.9416,0.944,0.9451,0.9471,0.9479,0.9499,0.9511,0.9527,0.9554,0.9563,0.9568,0.9586,0.958,0.9579,0.958,0.958,0.9547,0.9586,0.9586,0.9586,0.9586,0,0.9292,0.9296,0.9335,0.934,0.9347,0.9376,0.9382,0.94,0.9422,0.9432,0.946,0.9469,0.9504,0.9518,0.9539,0.955,0.9555,0.9567,0.9573,0.9565,0.9563,0.9572,0.9574,0.9585,0.9586,0.9586,0.9586,0,0.9254,0.928,0.9292,0.9325,0.9333,0.9336,0.9365,0.9372,0.9392,0.9405,0.941,0.9442,0.946,0.9489,0.9515,0.9529,0.9536,0.9546,0.9528,0.9531,0.9524,0.9525,0.9496,0.9494,0.9534,0.9533,0.9533,0,0.9237,0.9242,0.9275,0.9283,0.9297,0.931,0.9322,0.9352,0.9363,0.939,0.9394,0.9414,0.9431,0.9458,0.9484,0.9504,0.9515,0.9503,0.9518,0.951,0.9515,0.9514,0.9515,0.95,0.9499,0.9499,0.9499,0,0.9206,0.9218,0.9233,0.9253,0.9265,0.9282,0.9301,0.9307,0.9341,0.9352,0.9369,0.9383,0.9409,0.9428,0.9452,0.9469,0.949,0.9494,0.9494,0.9485,0.9475,0.9481,0.9519,0.9494,0.9495,0.9495,0.9495,0.9495,0.9178,0.9183,0.9207,0.9223,0.924,0.9257,0.9265,0.9286,0.9301,0.9325,0.9341,0.9358,0.9383,0.9417,0.9433,0.9447,0.9456,0.9456,0.9456,0.9456,0.9453,0.9472,0.9452,0.9452,0.9452,0.9452,0.9452,0,0.9148,0.9165,0.9179,0.9204,0.9216,0.9234,0.9255,0.9265,0.9279,0.93,0.9316,0.9337,0.9356,0.9384,0.9405,0.9411,0.9421,0.9416,0.9416,0.9419,0.9443,0.9441,0.9407,0.9407,0.9407,0.9407,0.9407,0.9407,0.9134,0.9143,0.9159,0.9177,0.9195,0.9211,0.9221,0.9237,0.9254,0.9276,0.9291,0.9309,0.9333,0.9356,0.9375,0.9383,0.9389,0.9381,0.9392,0.9413,0.9418,0.9422,0.942,0.9382,0.9382,0.9367,0.9367,0.9367]}]]